THOR ABLESTAR DEB, 1511

Orbit data source: Space-Track

THOR ABLESTAR DEB, 1511 is space debris in LEO originally from a launch on Fri, 13 Aug 1965 UTC launched from the Air Force Western Test Range (AFWTR). Debris objects in space refer to the collection of defunct objects orbiting the Earth. Examples of debris include non-operational satellites, rocket bodies, and fragments generated from explosions, collisions, or faulty payload assembly.

Loading next visibility...
Identifier
1511, 1965-065D
Orbit
LEO
Country
Flag of USUS
Related business
Manufacturer
NRL
Mission
Spacecraft
Bus & Motor
Unknown
Mass
Unknown
Launch date (UTC)
1965-08-13 (60 years ago)
Launch vehicle
Unknown
Launch site
Air Force Western Test Range (AFWTR)
Object type
Payload
Rocket body
Debris
Shape & HBR
Unknown shape, 0.6 m
Radar Cross Section
Medium (>0.1 m² and <1 m²)

Expand to show TLE details & history
Last TLE update: 20 hours ago

TLE from 20 hours ago
0 THOR ABLESTAR DEB
1  1511U 65065D   25318.20455921  .00000085  00000-0  14894-3 0  9999
2  1511  89.9897 211.5883 0070481  91.2513  74.5787 13.34180444932014
Epoch: 2025-11-14T04:54Z
TLE epoch observation values (Epoch: 2025-11-14T04:54:33.915Z)
Latitude
13.35431°
Longitude
-95.60685°
Altitude
1,119.498 km
Speed
7.3 km/s
True Right ascension
02h 06m 20s
True Declination
13° 16' 51"
Sunlit
Object was in full shadow at epoch
Visualization orbit readout
Latitude
Unknown
Longitude
Unknown
Altitude
Unknown
Speed
Unknown
Apparent Right ascension
Unknown
Apparent Declination
Unknown
Sunlit
N/A
Visualization observer readout
Local Sidereal Time
21:12:50
Azimuth
Unknown
Elevation
Unknown
Doppler factor
Unknown
Orbital elements
Apogee altitude
1,181.014 km
Perigee altitude
1,075.204 km
Semi-major axis
7,506.246 km
Eccentricity
0.00705
Inclination
89.9897°
RAAN
211.5883°
Arg. of periapsis
91.2513°
True anomaly
75.35908°
Mean anomaly
74.5787°
Eccentric anomaly
74.96871°
Mean motion
3.33741 °/min
Orbital period
107.87 mins
BSTAR
0.00014894
Loading maneuver chart data...
Computing Atmospheric mass density...
Loading historical data...
Loading historical data...
Loading historical data...
Loading historical data...
Loading historical data...
Loading historical data...
Loading historical data...

Documentation

Showing up to 5 results
|